When you browse on this site, cookies collect data to enhance your experience and personalize the content and advertising you see.
Visit our Privacy Policy to learn more. By continuing to use the site, you agree to this use of cookies and data.
  • En España
  • Lista de países
  • Para 7 días
  • Temperatura del agua
  • El tiempo en el mapa
  • Informadores
  • user-avatar
    Iniciar sesión

    Tiempo cada hora Dahab

    Hoy, 28 Febrero, Viernes

    Tiempo Temperatura Precipitaciones Viento Presión Humedad
    00:00 +18°C° 0 mm 1 mps 714 mmHg 38%
    01:00 +18°C° 0 mm 1 mps 714 mmHg 38%
    02:00 +16°C° 0 mm 1 mps 713 mmHg 39%
    03:00 +16°C° 0 mm 1 mps 713 mmHg 39%
    04:00 +15°C° 0 mm 1 mps 713 mmHg 40%
    05:00 +15°C° 0 mm 1 mps 713 mmHg 40%
    06:00 +18°C° 0 mm 1 mps 713 mmHg 36%
    07:00 +20°C° 0 mm 1 mps 714 mmHg 31%
    08:00 +22°C° 0 mm 1 mps 714 mmHg 26%
    09:00 +23°C° 0 mm 2 mps 714 mmHg 24%
    10:00 +24°C° 0 mm 3 mps 714 mmHg 22%
    11:00 +25°C° 0 mm 3 mps 715 mmHg 21%
    12:00 +25°C° 0 mm 3 mps 714 mmHg 21%
    13:00 +26°C° 0 mm 3 mps 713 mmHg 21%
    14:00 +26°C° 0 mm 3 mps 713 mmHg 22%
    15:00 +25°C° 0 mm 3 mps 713 mmHg 24%
    16:00 +25°C° 0 mm 3 mps 712 mmHg 25%
    17:00 +24°C° 0 mm 2 mps 712 mmHg 26%
    18:00 +23°C° 0 mm 2 mps 712 mmHg 29%
    19:00 +21°C° 0 mm 2 mps 712 mmHg 31%
    20:00 +20°C° 0 mm 2 mps 713 mmHg 34%
    21:00 +19°C° 0 mm 2 mps 713 mmHg 34%
    22:00 +19°C° 0 mm 2 mps 713 mmHg 34%
    23:00 +18°C° 0 mm 2 mps 713 mmHg 34%

    Mañana, 29 Febrero, Sábado

    Tiempo Temperatura Precipitaciones Viento Presión Humedad
    00:00 +18°C° 0 mm 2 mps 712 mmHg 35%
    01:00 +17°C° 0 mm 2 mps 712 mmHg 35%
    02:00 +17°C° 0 mm 2 mps 712 mmHg 35%
    03:00 +16°C° 0 mm 2 mps 712 mmHg 35%
    04:00 +16°C° 0 mm 2 mps 712 mmHg 35%
    05:00 +15°C° 0 mm 2 mps 712 mmHg 35%
    06:00 +17°C° 0 mm 2 mps 712 mmHg 32%
    07:00 +18°C° 0 mm 2 mps 713 mmHg 29%
    08:00 +19°C° 0 mm 2 mps 713 mmHg 26%
    09:00 +20°C° 0 mm 3 mps 713 mmHg 26%
    10:00 +21°C° 0 mm 4 mps 713 mmHg 26%
    11:00 +22°C° 0 mm 5 mps 714 mmHg 26%
    12:00 +22°C° 0 mm 5 mps 713 mmHg 27%
    13:00 +22°C° 0 mm 5 mps 712 mmHg 28%
    14:00 +22°C° 0 mm 4 mps 712 mmHg 29%
    15:00 +22°C° 0 mm 4 mps 712 mmHg 31%
    16:00 +21°C° 0 mm 4 mps 712 mmHg 32%
    17:00 +20°C° 0 mm 4 mps 712 mmHg 33%
    18:00 +19°C° 0 mm 4 mps 713 mmHg 34%
    19:00 +18°C° 0 mm 3 mps 713 mmHg 35%
    20:00 +17°C° 0 mm 3 mps 713 mmHg 36%
    21:00 +17°C° 0 mm 3 mps 713 mmHg 38%
    22:00 +16°C° 0 mm 3 mps 713 mmHg 39%
    23:00 +14°C° 0 mm 3 mps 713 mmHg 41%

    Pasado mañana, 1 Marzo, Domingo

    Tiempo Temperatura Precipitaciones Viento Presión Humedad
    00:00 +13°C° 0 mm 3 mps 713 mmHg 43%
    01:00 +13°C° 0 mm 4 mps 713 mmHg 46%
    02:00 +12°C° 0 mm 4 mps 713 mmHg 49%
    03:00 +12°C° 0 mm 4 mps 713 mmHg 50%
    04:00 +11°C° 0 mm 4 mps 713 mmHg 51%
    05:00 +11°C° 0 mm 4 mps 713 mmHg 52%
    06:00 +12°C° 0 mm 4 mps 714 mmHg 47%
    07:00 +13°C° 0 mm 3 mps 714 mmHg 42%
    08:00 +14°C° 0 mm 3 mps 715 mmHg 37%
    09:00 +15°C° 0 mm 4 mps 715 mmHg 33%
    10:00 +16°C° 0 mm 5 mps 715 mmHg 30%
    11:00 +19°C° 0 mm 5 mps 715 mmHg 26%
    12:00 +19°C° 0 mm 6 mps 715 mmHg 26%
    13:00 +20°C° 0 mm 6 mps 714 mmHg 27%
    14:00 +20°C° 0 mm 6 mps 714 mmHg 27%
    15:00 +20°C° 0 mm 6 mps 714 mmHg 29%
    16:00 +19°C° 0 mm 5 mps 714 mmHg 31%
    17:00 +19°C° 0 mm 5 mps 714 mmHg 34%
    18:00 +17°C° 0 mm 5 mps 714 mmHg 37%
    19:00 +17°C° 0 mm 4 mps 715 mmHg 40%
    20:00 +15°C° 0 mm 4 mps 715 mmHg 43%
    21:00 +14°C° 0 mm 4 mps 715 mmHg 43%
    22:00 +14°C° 0 mm 3 mps 715 mmHg 43%
    23:00 +13°C° 0 mm 3 mps 715 mmHg 43%

    2 Marzo, Lunes

    Tiempo Temperatura Precipitaciones Viento Presión Humedad
    00:00 +13°C° 0 mm 3 mps 715 mmHg 42%
    01:00 +12°C° 0 mm 3 mps 715 mmHg 41%
    02:00 +12°C° 0 mm 3 mps 714 mmHg 39%
    03:00 +11°C° 0 mm 3 mps 714 mmHg 39%
    04:00 +11°C° 0 mm 3 mps 714 mmHg 38%
    05:00 +11°C° 0 mm 3 mps 714 mmHg 38%
    06:00 +12°C° 0 mm 3 mps 715 mmHg 33%
    07:00 +14°C° 0 mm 3 mps 715 mmHg 28%
    08:00 +17°C° 0 mm 2 mps 716 mmHg 24%
    09:00 +18°C° 0 mm 3 mps 716 mmHg 22%
    10:00 +20°C° 0 mm 3 mps 716 mmHg 21%
    11:00 +21°C° 0 mm 4 mps 716 mmHg 20%
    12:00 +22°C° 0 mm 4 mps 715 mmHg 21%
    13:00 +22°C° 0 mm 4 mps 715 mmHg 23%
    14:00 +23°C° 0 mm 4 mps 715 mmHg 24%
    15:00 +22°C° 0 mm 4 mps 715 mmHg 27%
    16:00 +22°C° 0 mm 3 mps 714 mmHg 29%
    17:00 +21°C° 0 mm 3 mps 714 mmHg 31%
    18:00 +20°C° 0 mm 3 mps 715 mmHg 35%
    19:00 +19°C° 0 mm 3 mps 715 mmHg 38%
    20:00 +18°C° 0 mm 3 mps 715 mmHg 41%
    21:00 +17°C° 0 mm 2 mps 715 mmHg 42%
    22:00 +16°C° 0 mm 2 mps 715 mmHg 43%
    23:00 +16°C° 0 mm 2 mps 715 mmHg 43%

    3 Marzo, Martes

    Tiempo Temperatura Precipitaciones Viento Presión Humedad
    00:00 +16°C° 0 mm 2 mps 715 mmHg 42%
    01:00 +14°C° 0 mm 3 mps 715 mmHg 41%
    02:00 +14°C° 0 mm 3 mps 714 mmHg 40%
    03:00 +13°C° 0 mm 3 mps 714 mmHg 39%
    04:00 +13°C° 0 mm 3 mps 714 mmHg 38%
    05:00 +13°C° 0 mm 3 mps 714 mmHg 36%
    06:00 +16°C° 0 mm 3 mps 715 mmHg 30%
    07:00 +18°C° 0 mm 3 mps 715 mmHg 24%
    08:00 +20°C° 0 mm 3 mps 716 mmHg 17%
    09:00 +22°C° 0 mm 3 mps 716 mmHg 16%
    10:00 +24°C° 0 mm 3 mps 716 mmHg 15%
    11:00 +26°C° 0 mm 3 mps 716 mmHg 13%
    12:00 +26°C° 0 mm 3 mps 715 mmHg 15%
    13:00 +27°C° 0 mm 3 mps 715 mmHg 16%
    14:00 +27°C° 0 mm 3 mps 714 mmHg 18%
    15:00 +26°C° 0 mm 3 mps 714 mmHg 19%
    16:00 +26°C° 0 mm 2 mps 714 mmHg 20%
    17:00 +25°C° 0 mm 2 mps 714 mmHg 21%
    18:00 +24°C° 0 mm 2 mps 714 mmHg 23%
    19:00 +21°C° 0 mm 2 mps 714 mmHg 26%
    20:00 +21°C° 0 mm 1 mps 714 mmHg 28%
    21:00 +19°C° 0 mm 2 mps 714 mmHg 26%
    22:00 +19°C° 0 mm 2 mps 714 mmHg 23%
    23:00 +19°C° 0 mm 2 mps 714 mmHg 21%

    4 Marzo, Miércoles

    Tiempo Temperatura Precipitaciones Viento Presión Humedad
    00:00 +18°C° 0 mm 2 mps 714 mmHg 20%
    01:00 +18°C° 0 mm 2 mps 713 mmHg 19%
    02:00 +18°C° 0 mm 2 mps 713 mmHg 19%
    03:00 +17°C° 0 mm 2 mps 713 mmHg 20%
    04:00 +17°C° 0 mm 2 mps 712 mmHg 21%
    05:00 +16°C° 0 mm 1 mps 712 mmHg 22%
    06:00 +20°C° 0 mm 1 mps 713 mmHg 19%
    07:00 +21°C° 0 mm 2 mps 713 mmHg 17%
    08:00 +24°C° 0 mm 2 mps 714 mmHg 14%
    09:00 +26°C° 0 mm 2 mps 714 mmHg 13%
    10:00 +27°C° 0 mm 3 mps 714 mmHg 12%
    11:00 +28°C° 0 mm 3 mps 713 mmHg 11%
    12:00 +28°C° 0 mm 3 mps 713 mmHg 12%
    13:00 +29°C° 0 mm 3 mps 712 mmHg 12%
    14:00 +29°C° 0 mm 3 mps 712 mmHg 12%
    15:00 +29°C° 0 mm 3 mps 712 mmHg 13%
    16:00 +28°C° 0 mm 2 mps 712 mmHg 14%
    17:00 +28°C° 0 mm 1 mps 711 mmHg 14%
    18:00 +25°C° 0 mm 1 mps 712 mmHg 17%
    19:00 +23°C° 0 mm 1 mps 712 mmHg 20%
    20:00 +19°C° 0 mm 0 mps 712 mmHg 22%
    21:00 +19°C° 0 mm 0 mps 711 mmHg 22%
    22:00 +18°C° 0 mm 0 mps 711 mmHg 22%
    23:00 +18°C° 0 mm 0 mps 711 mmHg 22%
    Mostrar más